Year,Month,Day,Hour,Minute,Value (Times are PST for temperature in C)
2018,04,25,00,00,11.60
2018,04,25,00,01,11.50
2018,04,25,00,02,11.50
2018,04,25,00,03,11.40
2018,04,25,00,04,11.40
2018,04,25,00,05,11.40
2018,04,25,00,06,11.30
2018,04,25,00,07,11.30
2018,04,25,00,08,11.30
2018,04,25,00,09,11.30
2018,04,25,00,10,11.20
2018,04,25,00,11,11.20
2018,04,25,00,12,11.20
2018,04,25,00,13,11.20
2018,04,25,00,14,11.10
2018,04,25,00,15,11.10
2018,04,25,00,16,11.10
2018,04,25,00,17,11.10
2018,04,25,00,18,11.10
2018,04,25,00,19,11.10
2018,04,25,00,20,11.10
2018,04,25,00,21,11.00
2018,04,25,00,22,11.00
2018,04,25,00,23,11.00
2018,04,25,00,24,11.00
2018,04,25,00,25,11.00
2018,04,25,00,26,11.00
2018,04,25,00,27,11.00
2018,04,25,00,28,11.10
2018,04,25,00,29,11.10
2018,04,25,00,30,11.10
2018,04,25,00,31,11.10
2018,04,25,00,32,11.10
2018,04,25,00,33,11.10
2018,04,25,00,34,11.10
2018,04,25,00,35,11.10
2018,04,25,00,36,11.20
2018,04,25,00,37,11.20
2018,04,25,00,38,11.20
2018,04,25,00,39,11.20
2018,04,25,00,40,11.20
2018,04,25,00,41,11.20
2018,04,25,00,42,11.20
2018,04,25,00,43,11.20
2018,04,25,00,44,11.20
2018,04,25,00,45,11.20
2018,04,25,00,46,11.20
2018,04,25,00,47,11.20
2018,04,25,00,48,11.20
2018,04,25,00,49,11.10
2018,04,25,00,50,11.10
2018,04,25,00,51,11.10
2018,04,25,00,52,11.10
2018,04,25,00,53,11.10
2018,04,25,00,54,11.10
2018,04,25,00,55,11.10
2018,04,25,00,56,11.10
2018,04,25,00,57,11.10
2018,04,25,00,58,11.10
2018,04,25,00,59,11.10
2018,04,25,01,00,11.10
2018,04,25,01,01,11.10
2018,04,25,01,02,11.10
2018,04,25,01,03,11.10
2018,04,25,01,04,11.10
2018,04,25,01,05,11.00
2018,04,25,01,06,11.00
2018,04,25,01,07,11.00
2018,04,25,01,08,10.90
2018,04,25,01,09,10.80
2018,04,25,01,10,10.80
2018,04,25,01,11,10.60
2018,04,25,01,12,10.50
2018,04,25,01,13,10.40
2018,04,25,01,14,10.20
2018,04,25,01,15,10.20
2018,04,25,01,16,10.20
2018,04,25,01,17,10.10
2018,04,25,01,18,10.10
2018,04,25,01,19,10.10
2018,04,25,01,20,10.00
2018,04,25,01,21,10.00
2018,04,25,01,22,10.00
2018,04,25,01,23,9.90
2018,04,25,01,24,9.90
2018,04,25,01,25,9.90
2018,04,25,01,26,9.90
2018,04,25,01,27,9.90
2018,04,25,01,28,9.90
2018,04,25,01,29,9.90
2018,04,25,01,30,9.90
2018,04,25,01,31,9.90
2018,04,25,01,32,9.90
2018,04,25,01,33,9.90
2018,04,25,01,34,9.80
2018,04,25,01,35,9.80
2018,04,25,01,36,9.80
2018,04,25,01,37,9.80
2018,04,25,01,38,9.80
2018,04,25,01,39,9.80
2018,04,25,01,40,9.80
2018,04,25,01,41,9.70
2018,04,25,01,42,9.70
2018,04,25,01,43,9.70
2018,04,25,01,44,9.70
2018,04,25,01,45,9.70
2018,04,25,01,46,9.70
2018,04,25,01,47,9.70
2018,04,25,01,48,9.70
2018,04,25,01,49,9.60
2018,04,25,01,50,9.60
2018,04,25,01,51,9.60
2018,04,25,01,52,9.60
2018,04,25,01,53,9.50
2018,04,25,01,54,9.50
2018,04,25,01,55,9.50
2018,04,25,01,56,9.40
2018,04,25,01,57,9.40
2018,04,25,01,58,9.40
2018,04,25,01,59,9.40
2018,04,25,02,00,9.30
2018,04,25,02,01,9.30
2018,04,25,02,02,9.30
2018,04,25,02,03,9.20
2018,04,25,02,04,9.20
2018,04,25,02,05,9.10
2018,04,25,02,06,9.10
2018,04,25,02,07,9.00
2018,04,25,02,08,9.00
2018,04,25,02,09,9.00
2018,04,25,02,10,8.90
2018,04,25,02,11,8.90
2018,04,25,02,12,8.90
2018,04,25,02,13,8.90
2018,04,25,02,14,8.90
2018,04,25,02,15,8.90
2018,04,25,02,16,8.90
2018,04,25,02,17,8.90
2018,04,25,02,18,8.90
2018,04,25,02,19,8.90
2018,04,25,02,20,8.90
2018,04,25,02,21,8.90
2018,04,25,02,22,8.90
2018,04,25,02,23,8.90
2018,04,25,02,24,8.80
2018,04,25,02,25,8.80
2018,04,25,02,26,8.80
2018,04,25,02,27,8.80
2018,04,25,02,28,8.80
2018,04,25,02,29,8.80
2018,04,25,02,30,8.80
2018,04,25,02,31,8.80
2018,04,25,02,32,8.70
2018,04,25,02,33,8.70
2018,04,25,02,34,8.80
2018,04,25,02,35,8.80
2018,04,25,02,36,8.80
2018,04,25,02,37,8.80
2018,04,25,02,38,8.80
2018,04,25,02,39,8.80
2018,04,25,02,40,8.80
2018,04,25,02,41,8.80
2018,04,25,02,42,8.80
2018,04,25,02,43,8.80
2018,04,25,02,44,8.80
2018,04,25,02,45,8.90
2018,04,25,02,46,8.90
2018,04,25,02,47,8.90
2018,04,25,02,48,8.90
2018,04,25,02,49,8.90
2018,04,25,02,50,9.00
2018,04,25,02,51,9.00
2018,04,25,02,52,9.00
2018,04,25,02,53,9.00
2018,04,25,02,54,9.10
2018,04,25,02,55,9.10
2018,04,25,02,56,9.10
2018,04,25,02,57,9.10
2018,04,25,02,58,9.10
2018,04,25,02,59,9.10
2018,04,25,03,00,9.10
2018,04,25,03,01,9.10
2018,04,25,03,02,9.10
2018,04,25,03,03,9.10
2018,04,25,03,04,9.00
2018,04,25,03,05,9.00
2018,04,25,03,06,8.90
2018,04,25,03,07,8.90
2018,04,25,03,08,8.90
2018,04,25,03,09,8.90
2018,04,25,03,10,8.90
2018,04,25,03,11,8.90
2018,04,25,03,12,9.00
2018,04,25,03,13,9.00
2018,04,25,03,14,9.00
2018,04,25,03,15,9.00
2018,04,25,03,16,9.10
2018,04,25,03,17,9.10
2018,04,25,03,18,9.10
2018,04,25,03,19,9.10
2018,04,25,03,20,9.10
2018,04,25,03,21,9.10
2018,04,25,03,22,9.00
2018,04,25,03,23,9.00
2018,04,25,03,24,8.90
2018,04,25,03,25,8.90
2018,04,25,03,26,8.80
2018,04,25,03,27,8.80
2018,04,25,03,28,8.70
2018,04,25,03,29,8.60
2018,04,25,03,30,8.60
2018,04,25,03,31,8.50
2018,04,25,03,32,8.50
2018,04,25,03,33,8.50
2018,04,25,03,34,8.50
2018,04,25,03,35,8.50
2018,04,25,03,36,8.40
2018,04,25,03,37,8.40
2018,04,25,03,38,8.40
2018,04,25,03,39,8.40
2018,04,25,03,40,8.40
2018,04,25,03,41,8.40
2018,04,25,03,42,8.30
2018,04,25,03,43,8.30
2018,04,25,03,44,8.30
2018,04,25,03,45,8.30
2018,04,25,03,46,8.30
2018,04,25,03,47,8.30
2018,04,25,03,48,8.20
2018,04,25,03,49,8.20
2018,04,25,03,50,8.20
2018,04,25,03,51,8.20
2018,04,25,03,52,8.10
2018,04,25,03,53,8.10
2018,04,25,03,54,8.10
2018,04,25,03,55,8.10
2018,04,25,03,56,8.10
2018,04,25,03,57,8.10
2018,04,25,03,58,8.10
2018,04,25,03,59,8.10
2018,04,25,04,00,8.20
2018,04,25,04,01,8.20
2018,04,25,04,02,8.20
2018,04,25,04,03,8.20
2018,04,25,04,04,8.20
2018,04,25,04,05,8.30
2018,04,25,04,06,8.30
2018,04,25,04,07,8.30
2018,04,25,04,08,8.30
2018,04,25,04,09,8.40
2018,04,25,04,10,8.40
2018,04,25,04,11,8.40
2018,04,25,04,12,8.40
2018,04,25,04,13,8.40
2018,04,25,04,14,8.40
2018,04,25,04,15,8.40
2018,04,25,04,16,8.40
2018,04,25,04,17,8.40
2018,04,25,04,18,8.40
2018,04,25,04,19,8.40
2018,04,25,04,20,8.40
2018,04,25,04,21,8.40
2018,04,25,04,22,8.40
2018,04,25,04,23,8.40
2018,04,25,04,24,8.40
2018,04,25,04,25,8.40
2018,04,25,04,26,8.40
2018,04,25,04,27,8.50
2018,04,25,04,28,8.50
2018,04,25,04,29,8.50
2018,04,25,04,30,8.50
2018,04,25,04,31,8.50
2018,04,25,04,32,8.50
2018,04,25,04,33,8.50
2018,04,25,04,34,8.50
2018,04,25,04,35,8.50
2018,04,25,04,36,8.50
2018,04,25,04,37,8.50
2018,04,25,04,38,8.40
2018,04,25,04,39,8.40
2018,04,25,04,40,8.40
2018,04,25,04,41,8.40
2018,04,25,04,42,8.40
2018,04,25,04,43,8.40
2018,04,25,04,44,8.30
2018,04,25,04,45,8.30
2018,04,25,04,46,8.30
2018,04,25,04,47,8.30
2018,04,25,04,48,8.30
2018,04,25,04,49,8.30
2018,04,25,04,50,8.20
2018,04,25,04,51,8.20
2018,04,25,04,52,8.20
2018,04,25,04,53,8.10
2018,04,25,04,54,8.10
2018,04,25,04,55,8.00
2018,04,25,04,56,8.00
2018,04,25,04,57,7.90
2018,04,25,04,58,7.90
2018,04,25,04,59,7.90
2018,04,25,05,00,7.80
2018,04,25,05,01,7.80
2018,04,25,05,02,7.80
2018,04,25,05,03,7.80
2018,04,25,05,04,7.70
2018,04,25,05,05,7.70
2018,04,25,05,06,7.80
2018,04,25,05,07,7.80
2018,04,25,05,08,7.80
2018,04,25,05,09,7.80
2018,04,25,05,10,7.90
2018,04,25,05,11,7.90
2018,04,25,05,12,8.00
2018,04,25,05,13,8.00
2018,04,25,05,14,8.00
2018,04,25,05,15,8.10
2018,04,25,05,16,8.10
2018,04,25,05,17,8.10
2018,04,25,05,18,8.10
2018,04,25,05,19,8.10
2018,04,25,05,20,8.00
2018,04,25,05,21,8.00
2018,04,25,05,22,8.00
2018,04,25,05,23,8.00
2018,04,25,05,24,8.00
2018,04,25,05,25,7.90
2018,04,25,05,26,7.90
2018,04,25,05,27,7.90
2018,04,25,05,28,7.90
2018,04,25,05,29,7.90
2018,04,25,05,30,7.90
2018,04,25,05,31,7.90
2018,04,25,05,32,7.90
2018,04,25,05,33,7.90
2018,04,25,05,34,7.90
2018,04,25,05,35,7.90
2018,04,25,05,36,7.90
2018,04,25,05,37,7.90
2018,04,25,05,38,7.90
2018,04,25,05,39,7.90
2018,04,25,05,40,7.90
2018,04,25,05,41,8.00
2018,04,25,05,42,8.00
2018,04,25,05,43,8.00
2018,04,25,05,44,8.00
2018,04,25,05,45,8.00
2018,04,25,05,46,8.00
2018,04,25,05,47,8.00
2018,04,25,05,48,7.90
2018,04,25,05,49,7.90
2018,04,25,05,50,7.90
2018,04,25,05,51,7.90
2018,04,25,05,52,7.90
2018,04,25,05,53,7.90
2018,04,25,05,54,7.90
2018,04,25,05,55,7.80
2018,04,25,05,56,7.80
2018,04,25,05,57,7.80
2018,04,25,05,58,7.70
2018,04,25,05,59,7.70
2018,04,25,06,00,7.70
2018,04,25,06,01,7.70
2018,04,25,06,02,7.60
2018,04,25,06,03,7.60
2018,04,25,06,04,7.60
2018,04,25,06,05,7.60
2018,04,25,06,06,7.60
2018,04,25,06,07,7.60
2018,04,25,06,08,7.60
2018,04,25,06,09,7.60
2018,04,25,06,10,7.60
2018,04,25,06,11,7.60
2018,04,25,06,12,7.60
2018,04,25,06,13,7.60
2018,04,25,06,14,7.60
2018,04,25,06,15,7.60
2018,04,25,06,16,7.50
2018,04,25,06,17,7.50
2018,04,25,06,18,7.50
2018,04,25,06,19,7.40
2018,04,25,06,20,7.40
2018,04,25,06,21,7.40
2018,04,25,06,22,7.40
2018,04,25,06,23,7.40
2018,04,25,06,24,7.40
2018,04,25,06,25,7.40
2018,04,25,06,26,7.40
2018,04,25,06,27,7.30
2018,04,25,06,28,7.30
2018,04,25,06,29,7.40
2018,04,25,06,30,7.40
2018,04,25,06,31,7.40
2018,04,25,06,32,7.40
2018,04,25,06,33,7.50
2018,04,25,06,34,7.50
2018,04,25,06,35,7.50
2018,04,25,06,36,7.50
2018,04,25,06,37,7.60
2018,04,25,06,38,7.60
2018,04,25,06,39,7.60
2018,04,25,06,40,7.60
2018,04,25,06,41,7.60
2018,04,25,06,42,7.70
2018,04,25,06,43,7.70
2018,04,25,06,44,7.80
2018,04,25,06,45,7.80
2018,04,25,06,46,7.80
2018,04,25,06,47,7.90
2018,04,25,06,48,7.90
2018,04,25,06,49,8.00
2018,04,25,06,50,8.00
2018,04,25,06,51,8.00
2018,04,25,06,52,8.10
2018,04,25,06,53,8.10
2018,04,25,06,54,8.10
2018,04,25,06,55,8.10
2018,04,25,06,56,8.10
2018,04,25,06,57,8.20
2018,04,25,06,58,8.20
2018,04,25,06,59,8.30
2018,04,25,07,00,8.30
2018,04,25,07,01,8.30
2018,04,25,07,02,8.40
2018,04,25,07,03,8.40
2018,04,25,07,04,8.40
2018,04,25,07,05,8.50
2018,04,25,07,06,8.50
2018,04,25,07,07,8.60
2018,04,25,07,08,8.60
2018,04,25,07,09,8.70
2018,04,25,07,10,8.70
2018,04,25,07,11,8.70
2018,04,25,07,12,8.80
2018,04,25,07,13,8.80
2018,04,25,07,14,8.90
2018,04,25,07,15,8.90
2018,04,25,07,16,9.00
2018,04,25,07,17,9.00
2018,04,25,07,18,9.10
2018,04,25,07,19,9.10
2018,04,25,07,20,9.20
2018,04,25,07,21,9.20
2018,04,25,07,22,9.30
2018,04,25,07,23,9.30
2018,04,25,07,24,9.30
2018,04,25,07,25,9.40
2018,04,25,07,26,9.50
2018,04,25,07,27,9.50
2018,04,25,07,28,9.60
2018,04,25,07,29,9.60
2018,04,25,07,30,9.70
2018,04,25,07,31,9.80
2018,04,25,07,32,9.80
2018,04,25,07,33,9.90
2018,04,25,07,34,10.00
2018,04,25,07,35,10.00
2018,04,25,07,36,10.10
2018,04,25,07,37,10.20
2018,04,25,07,38,10.30
2018,04,25,07,39,10.30
2018,04,25,07,40,10.40
2018,04,25,07,41,10.50
2018,04,25,07,42,10.50
2018,04,25,07,43,10.60
2018,04,25,07,44,10.70
2018,04,25,07,45,10.70
2018,04,25,07,46,10.80
2018,04,25,07,47,10.80
2018,04,25,07,48,10.90
2018,04,25,07,49,11.00
2018,04,25,07,50,11.10
2018,04,25,07,51,11.10
2018,04,25,07,52,11.20
2018,04,25,07,53,11.20
2018,04,25,07,54,11.20
2018,04,25,07,55,11.30
2018,04,25,07,56,11.30
2018,04,25,07,57,11.30
2018,04,25,07,58,11.40
2018,04,25,07,59,11.50
2018,04,25,08,00,11.50
2018,04,25,08,01,11.60
2018,04,25,08,02,11.70
2018,04,25,08,03,11.80
2018,04,25,08,04,11.80
2018,04,25,08,05,11.90
2018,04,25,08,06,12.00
2018,04,25,08,07,12.00
2018,04,25,08,08,12.00
2018,04,25,08,09,12.10
2018,04,25,08,10,12.10
2018,04,25,08,11,12.10
2018,04,25,08,12,12.10
2018,04,25,08,13,12.20
2018,04,25,08,14,12.20
2018,04,25,08,15,12.30
2018,04,25,08,16,12.30
2018,04,25,08,17,12.40
2018,04,25,08,18,12.40
2018,04,25,08,19,12.40
2018,04,25,08,20,12.50
2018,04,25,08,21,12.50
2018,04,25,08,22,12.60
2018,04,25,08,23,12.60
2018,04,25,08,24,12.60
2018,04,25,08,25,12.70
2018,04,25,08,26,12.70
2018,04,25,08,27,12.80
2018,04,25,08,28,12.80
2018,04,25,08,29,12.90
2018,04,25,08,30,12.90
2018,04,25,08,31,12.90
2018,04,25,08,32,12.90
2018,04,25,08,33,13.00
2018,04,25,08,34,13.00
2018,04,25,08,35,13.10
2018,04,25,08,36,13.10
2018,04,25,08,37,13.20
2018,04,25,08,38,13.20
2018,04,25,08,39,13.30
2018,04,25,08,40,13.30
2018,04,25,08,41,13.40
2018,04,25,08,42,13.40
2018,04,25,08,43,13.50
2018,04,25,08,44,13.60
2018,04,25,08,45,13.60
2018,04,25,08,46,13.70
2018,04,25,08,47,13.80
2018,04,25,08,48,13.80
2018,04,25,08,49,13.90
2018,04,25,08,50,13.90
2018,04,25,08,51,14.00
2018,04,25,08,52,14.00
2018,04,25,08,53,14.00
2018,04,25,08,54,13.90
2018,04,25,08,55,13.90
2018,04,25,08,56,14.00
2018,04,25,08,57,14.00
2018,04,25,08,58,14.00
2018,04,25,08,59,14.10
2018,04,25,09,00,14.10
2018,04,25,09,01,14.10
2018,04,25,09,02,14.20
2018,04,25,09,03,14.20
2018,04,25,09,04,14.20
2018,04,25,09,05,14.20
2018,04,25,09,06,14.20
2018,04,25,09,07,14.20
2018,04,25,09,08,14.20
2018,04,25,09,09,14.20
2018,04,25,09,10,14.20
2018,04,25,09,11,14.20
2018,04,25,09,12,14.20
2018,04,25,09,13,14.20
2018,04,25,09,14,14.30
2018,04,25,09,15,14.30
2018,04,25,09,16,14.40
2018,04,25,09,17,14.40
2018,04,25,09,18,14.50
2018,04,25,09,19,14.60
2018,04,25,09,20,14.60
2018,04,25,09,21,14.70
2018,04,25,09,22,14.70
2018,04,25,09,23,14.70
2018,04,25,09,24,14.80
2018,04,25,09,25,14.80
2018,04,25,09,26,14.90
2018,04,25,09,27,14.90
2018,04,25,09,28,15.10
2018,04,25,09,29,15.20
2018,04,25,09,30,15.30
2018,04,25,09,31,15.40
2018,04,25,09,32,15.50
2018,04,25,09,33,15.50
2018,04,25,09,34,15.50
2018,04,25,09,35,15.50
2018,04,25,09,36,15.50
2018,04,25,09,37,15.40
2018,04,25,09,38,15.50
2018,04,25,09,39,15.60
2018,04,25,09,40,15.60
2018,04,25,09,41,15.60
2018,04,25,09,42,15.60
2018,04,25,09,43,15.70
2018,04,25,09,44,15.80
2018,04,25,09,45,15.80
2018,04,25,09,46,15.80
2018,04,25,09,47,15.90
2018,04,25,09,48,15.90
2018,04,25,09,49,16.00
2018,04,25,09,50,16.00
2018,04,25,09,51,16.00
2018,04,25,09,52,16.10
2018,04,25,09,53,16.10
2018,04,25,09,54,16.10
2018,04,25,09,55,16.10
2018,04,25,09,56,16.10
2018,04,25,09,57,16.20
2018,04,25,09,58,16.30
2018,04,25,09,59,16.40
2018,04,25,10,00,16.60
2018,04,25,10,01,16.70
2018,04,25,10,02,16.80
2018,04,25,10,03,16.90
2018,04,25,10,04,16.90
2018,04,25,10,05,16.90
2018,04,25,10,06,16.80
2018,04,25,10,07,16.70
2018,04,25,10,08,16.60
2018,04,25,10,09,16.60
2018,04,25,10,10,16.50
2018,04,25,10,11,16.40
2018,04,25,10,12,16.30
2018,04,25,10,13,16.30
2018,04,25,10,14,16.30
2018,04,25,10,15,16.20
2018,04,25,10,16,16.20
2018,04,25,10,17,16.30
2018,04,25,10,18,16.30
2018,04,25,10,19,16.40
2018,04,25,10,20,16.40
2018,04,25,10,21,16.40
2018,04,25,10,22,16.50
2018,04,25,10,23,16.50
2018,04,25,10,24,16.50
2018,04,25,10,25,16.50
2018,04,25,10,26,16.60
2018,04,25,10,27,16.50
2018,04,25,10,28,16.40
2018,04,25,10,29,16.30
2018,04,25,10,30,16.30
2018,04,25,10,31,16.30
2018,04,25,10,32,16.40
2018,04,25,10,33,16.40
2018,04,25,10,34,16.40
2018,04,25,10,35,16.40
2018,04,25,10,36,16.40
2018,04,25,10,37,16.40
2018,04,25,10,38,16.40
2018,04,25,10,39,16.40
2018,04,25,10,40,16.40
2018,04,25,10,41,16.50
2018,04,25,10,42,16.70
2018,04,25,10,43,16.80
2018,04,25,10,44,16.90
2018,04,25,10,45,16.80
2018,04,25,10,46,16.80
2018,04,25,10,47,16.80
2018,04,25,10,48,16.80
2018,04,25,10,49,16.90
2018,04,25,10,50,17.00
2018,04,25,10,51,17.00
2018,04,25,10,52,17.10
2018,04,25,10,53,17.10
2018,04,25,10,54,17.10
2018,04,25,10,55,16.90
2018,04,25,10,56,16.70
2018,04,25,10,57,16.60
2018,04,25,10,58,16.50
2018,04,25,10,59,16.50
2018,04,25,11,00,16.50
2018,04,25,11,01,16.60
2018,04,25,11,02,16.60
2018,04,25,11,03,16.60
2018,04,25,11,04,16.60
2018,04,25,11,05,16.60
2018,04,25,11,06,16.60
2018,04,25,11,07,16.60
2018,04,25,11,08,16.70
2018,04,25,11,09,16.70
2018,04,25,11,10,16.70
2018,04,25,11,11,16.60
2018,04,25,11,12,16.60
2018,04,25,11,13,16.60
2018,04,25,11,14,16.50
2018,04,25,11,15,16.60
2018,04,25,11,16,16.50
2018,04,25,11,17,16.50
2018,04,25,11,18,16.40
2018,04,25,11,19,16.40
2018,04,25,11,20,16.40
2018,04,25,11,21,16.40
2018,04,25,11,22,16.40
2018,04,25,11,23,16.50
2018,04,25,11,24,16.40
2018,04,25,11,25,16.40
2018,04,25,11,26,16.50
2018,04,25,11,27,16.50
2018,04,25,11,28,16.60
2018,04,25,11,29,16.70
2018,04,25,11,30,16.90
2018,04,25,11,31,17.00
2018,04,25,11,32,17.10
2018,04,25,11,33,17.20
2018,04,25,11,34,17.30
2018,04,25,11,35,17.30
2018,04,25,11,36,17.30
2018,04,25,11,37,17.30
2018,04,25,11,38,17.20
2018,04,25,11,39,17.20
2018,04,25,11,40,17.10
2018,04,25,11,41,17.00
2018,04,25,11,42,17.10
2018,04,25,11,43,17.10
2018,04,25,11,44,17.00
2018,04,25,11,45,17.00
2018,04,25,11,46,17.00
2018,04,25,11,47,17.10
2018,04,25,11,48,17.00
2018,04,25,11,49,16.80
2018,04,25,11,50,16.60
2018,04,25,11,51,16.50
2018,04,25,11,52,16.50
2018,04,25,11,53,16.70
2018,04,25,11,54,16.80
2018,04,25,11,55,16.80
2018,04,25,11,56,16.70
2018,04,25,11,57,16.60
2018,04,25,11,58,16.60
2018,04,25,11,59,16.70
2018,04,25,12,00,16.80
2018,04,25,12,01,16.80
2018,04,25,12,02,16.80
2018,04,25,12,03,16.90
2018,04,25,12,04,17.10
2018,04,25,12,05,17.20
2018,04,25,12,06,17.20
2018,04,25,12,07,17.30
2018,04,25,12,08,17.30
2018,04,25,12,09,17.30
